Location: ?????????
(41.2286°N, 23.0068°E)
Time: 00:23:53
(UTC+00:00)

ARGOS - Pass Details

Date: 08 November 2025
Orbit: 819 x 832 km, 98.5° (Epoch: 06 December)

Event Time Altitude Azimuth Distance (km) Brightness Sun altitude
Rises 02:28:13 0° 13° (NNE) 3,385 6.5 -30.2°
Reaches altitude 10° 02:30:35 10° 13° (NNE) 2,448 5.8 -29.8°
Enters shadow 02:34:49 56° 12° (NNE) 983 3.5 -29.0°
